Location: Auckland
(36.8670°S, 174.7670°E)
Time: 14:58:15
(UTC+12:00)

Tiros 1 despin weight - Pass Details

Date: 23 July 2019
Orbit: 594 x 642 km, 48.2° (Epoch: 20 August)

Event Time Altitude Azimuth Distance (km) Brightness Sun altitude
Rises 02:31:49 0° 245° (WSW) 2,855 - -58.3°
Reaches altitude 10° 02:34:41 10° 226° (SW) 1,957 - -57.7°
Maximum altitude 02:37:55 19° 180° (S) 1,466 - -57.1°
Drops below altitude 10° 02:41:10 10° 134° (SE) 1,972 - -56.5°
Sets 02:44:04 0° 116° (ESE) 2,885 - -56.0°
